Theta_e
326 326 326 326 327 326 325 327 327 328 327 329 330 330 327 327 327 327 327 329 331 327 324 317 322 324 320 311 314 313 310 308 309 310 312 314 314 314
325 325 325 325 326 325 326 325 327 326 326 327 328 330 330 330 328 330 328 327 323 322 322 324 323 316 313 312 312 313 309 309 313 312 314 314 315 316
324 324 324 325 327 325 325 324 327 326 325 327 328 330 330 329 327 327 325 322 323 324 324 322 316 312 312 312 311 310 314 312 313 314 315 316 317 318
325 327 324 327 327 328 329 328 326 328 327 328 329 329 329 328 326 323 324 324 324 324 323 322 315 312 313 315 315 314 313 313 314 315 317 318 314 309
326 326 327 326 328 328 328 328 328 328 327 327 328 328 324 323 323 324 324 323 323 322 322 321 317 314 312 313 313 312 313 315 317 319 315 310 301 297
327 327 327 327 327 326 326 327 327 327 326 328 325 323 323 324 324 323 323 323 322 322 322 317 314 313 312 312 312 314 316 319 317 311 305 298 297 297
329 327 326 327 327 327 326 325 326 326 325 324 324 323 323 324 324 323 323 322 321 321 319 313 314 313 312 312 314 318 319 313 310 300 297 297 296 296
329 328 327 327 327 327 326 326 327 326 324 323 323 324 324 324 323 324 323 322 319 315 314 314 314 312 312 314 319 318 313 310 299 297 296 296 296 296
329 328 327 329 327 327 328 327 326 326 325 323 323 325 323 323 323 323 323 323 321 316 315 313 313 312 316 318 318 313 311 301 297 296 296 296 296 296
329 328 328 328 328 328 327 326 325 325 323 323 324 324 324 324 324 324 323 319 316 313 313 312 316 317 318 317 314 312 307 297 296 296 296 296 296 296
328 328 328 327 328 328 327 325 325 324 323 323 324 324 324 324 324 321 317 314 313 313 315 316 318 318 318 316 312 312 303 296 296 296 296 296 296 296
328 328 327 327 327 328 327 326 326 324 323 323 324 324 323 322 318 316 315 313 312 317 317 319 318 317 315 312 312 311 303 296 296 296 296 296 296 296
330 326 326 326 327 327 327 326 325 324 324 324 324 324 322 316 317 319 317 316 315 319 320 319 318 317 316 315 314 312 307 297 296 296 296 297 297 297
326 326 326 327 327 327 327 326 325 324 324 324 322 321 318 317 324 325 323 323 320 323 325 323 320 319 318 317 316 314 309 303 297 298 298 298 298 298
326 326 326 326 327 326 327 326 325 325 325 324 324 323 322 320 322 325 324 325 325 326 324 324 322 321 319 318 316 316 313 308 304 299 298 298 297 296
325 325 325 326 326 326 326 326 326 326 324 324 324 324 323 322 324 323 324 325 325 325 325 323 322 321 319 319 318 318 313 310 307 303 302 301 298 297
324 325 325 325 326 326 326 325 325 325 324 324 325 323 322 320 320 321 322 324 325 324 323 323 321 321 320 320 319 317 311 308 306 303 302 301 299 297
325 325 323 325 325 325 325 325 324 324 325 325 324 323 321 320 317 319 321 321 322 323 323 322 320 319 318 316 317 312 306 305 303 302 301 300 297 297
324 323 320 323 324 324 324 323 323 322 322 321 320 318 318 319 321 323 323 322 320 319 318 317 317 316 317 315 311 306 304 304 302 302 300 299 304 296
321 322 321 317 319 320 322 323 325 324 324 324 325 325 324 324 324 323 322 319 317 317 316 315 315 315 314 312 308 305 303 303 302 300 298 302 302 296
324 326 326 326 324 320 316 326 326 327 325 325 326 326 324 323 323 319 317 318 319 318 318 317 315 317 314 311 308 303 300 301 301 299 301 302 294 294
327 327 328 328 328 328 327 325 321 324 326 325 326 326 325 324 324 323 320 319 319 319 318 317 317 317 315 313 309 307 303 302 300 301 302 303 294 293
325 326 327 328 329 329 328 327 327 325 324 324 324 324 324 324 324 324 323 321 320 319 319 318 317 317 314 312 309 307 304 302 300 302 304 303 300 294
Wind_Speed
3 7 9 9 5 10 16 19 21 21 18 17 16 17 23 20 18 20 23 35 45 45 36 37 35 25 25 20 17 14 12 10 7 3 2 2 1 2
4 5 9 9 8 8 12 14 19 26 18 21 18 19 21 16 18 27 43 43 37 36 37 33 26 25 22 18 15 14 13 11 8 6 5 2 3 5
3 5 7 6 6 7 9 24 20 25 26 21 22 19 22 27 32 29 36 38 39 35 30 30 26 22 21 19 17 13 10 11 8 6 4 4 5 5
4 2 2 6 7 10 17 22 22 25 23 30 31 27 30 26 38 40 42 39 35 29 28 26 26 21 17 15 13 15 10 7 6 5 5 4 3 4
5 5 11 11 13 16 18 21 19 24 27 33 33 33 42 43 47 44 41 40 36 30 23 21 23 20 17 15 12 10 7 6 5 4 3 3 4 3
4 7 9 11 13 18 15 13 16 22 30 35 40 43 44 44 48 43 39 33 31 27 23 24 21 19 15 13 11 8 6 4 4 3 4 3 2 1
8 10 9 12 13 12 15 18 18 25 32 37 46 47 47 48 45 40 37 32 27 24 24 25 21 18 14 12 9 7 6 4 4 4 2 2 2 1
7 10 9 7 12 13 14 14 19 33 47 45 46 50 48 46 41 36 34 31 28 25 26 23 18 14 12 10 10 8 5 4 3 3 4 4 2 2
8 9 11 12 16 17 15 16 33 32 35 41 51 48 43 40 35 32 31 28 30 30 23 20 15 13 13 11 9 6 5 5 6 6 5 3 3 4
9 11 11 16 16 19 19 33 38 33 35 44 40 41 34 35 31 26 30 30 26 25 20 19 17 13 11 11 10 7 6 6 7 7 6 4 4 6
10 11 13 15 16 18 24 33 39 35 33 33 29 29 26 25 26 31 28 27 27 22 20 9 14 12 11 12 10 8 8 9 9 8 7 6 6 8
12 12 12 15 17 18 23 30 37 38 31 33 30 29 30 26 27 22 23 22 24 19 17 11 13 11 11 14 13 11 10 11 11 10 8 7 7 9
15 15 15 16 17 19 21 31 40 36 28 33 30 32 29 28 23 19 17 13 17 8 13 13 12 12 9 9 9 9 11 12 12 11 8 7 8 9
19 18 19 17 17 19 24 28 34 31 33 35 32 29 27 28 21 17 16 11 10 4 3 4 7 9 9 8 9 9 8 12 14 10 9 10 10 11
22 22 20 20 22 19 25 31 32 29 32 35 32 28 25 26 22 22 20 16 12 10 15 14 9 10 13 12 12 11 11 9 11 11 12 11 12 13
21 21 20 19 20 25 26 26 30 31 30 33 31 26 25 27 23 22 21 20 16 14 20 21 20 18 17 15 15 15 17 16 14 12 12 12 14 15
21 20 18 20 24 26 26 27 31 33 30 26 25 26 27 26 24 22 20 18 17 18 21 23 25 23 21 21 23 24 23 21 17 12 11 14 17 17
20 19 19 21 26 28 29 29 28 29 26 24 24 26 26 26 24 22 20 21 22 22 23 24 25 26 26 24 28 25 22 19 16 14 14 16 14 16
21 21 21 24 27 29 29 29 28 24 21 23 23 22 21 21 21 22 22 22 24 23 23 24 23 23 25 29 27 21 22 21 19 16 15 12 17 18
22 21 20 22 25 27 26 25 23 21 24 24 23 21 20 21 23 27 27 27 25 25 24 24 25 24 22 21 24 25 23 23 22 18 14 14 18 18
27 24 21 21 22 22 24 26 24 22 24 25 28 31 25 24 23 25 26 26 25 26 28 29 27 23 22 22 21 21 24 26 24 16 14 15 18 18
29 28 27 27 28 25 24 23 26 27 28 27 33 27 28 29 29 27 28 30 32 31 31 30 28 30 32 31 26 21 23 25 26 21 18 15 15 18
30 31 30 30 26 29 29 28 29 28 30 31 32 35 36 35 35 33 31 33 34 34 35 33 34 34 35 33 28 25 24 23 25 20 16 15 18 17
Wind_Direction
223 200 190 204 189 154 172 179 185 161 158 153 159 168 161 166 168 175 180 175 175 167 151 150 160 158 141 141 151 152 147 142 140 144 186 187 260 299
154 161 174 204 232 216 202 208 184 179 159 173 160 168 172 161 160 161 152 150 148 143 149 153 151 137 144 147 155 158 163 170 199 202 225 247 274 286
203 185 179 201 198 207 202 165 177 192 173 166 170 162 159 159 155 159 157 148 149 148 144 141 142 150 151 155 155 174 201 158 187 212 235 262 279 285
107 155 179 166 190 173 165 170 178 187 173 148 163 166 160 172 161 142 145 147 149 149 147 150 154 159 168 172 167 164 168 183 204 237 264 268 271 289
163 120 152 141 163 155 171 175 172 177 165 152 158 161 152 146 149 150 148 142 143 149 151 162 153 153 155 163 173 176 184 202 228 241 233 256 269 270
146 147 135 147 145 144 138 143 147 156 159 160 153 150 154 153 152 145 139 145 149 156 159 154 152 164 172 172 175 184 197 212 209 228 251 247 229 221
125 155 160 161 171 181 178 174 174 166 163 148 147 146 145 140 143 148 146 148 151 157 154 153 167 173 176 178 186 189 187 191 231 249 219 200 197 238
122 129 128 142 162 160 161 177 185 170 154 143 141 145 146 149 154 158 158 156 151 159 160 166 174 177 181 186 186 180 191 231 244 207 196 199 223 320
136 139 126 125 140 145 150 158 168 167 163 162 154 153 155 159 162 161 162 165 161 161 172 163 165 188 188 186 185 195 217 230 207 198 201 213 259 300
117 131 128 130 138 144 144 162 154 159 163 160 159 157 155 161 167 165 168 164 156 160 174 168 171 185 193 195 199 212 234 224 206 206 212 233 277 311
125 133 139 136 150 151 151 163 155 155 157 156 153 161 165 166 168 164 158 163 162 166 175 196 181 191 203 201 211 225 235 223 215 216 225 252 284 309
128 126 128 134 152 168 163 160 161 158 156 156 152 150 157 156 160 163 164 169 166 167 184 189 194 192 203 211 215 226 230 228 230 232 240 258 287 299
144 136 132 137 142 160 155 164 162 162 162 155 158 158 159 159 159 169 176 181 177 166 184 174 177 190 193 195 212 220 228 232 234 240 247 267 282 293
140 135 126 140 144 167 164 168 164 160 162 163 156 157 165 167 165 175 178 180 189 196 266 225 214 221 236 228 217 234 245 234 234 243 254 266 285 298
132 128 122 132 154 154 162 166 173 165 171 172 169 170 171 172 180 184 190 203 218 230 236 249 246 254 253 259 257 255 245 257 252 251 255 269 287 295
133 128 123 124 140 144 148 165 174 171 172 174 178 179 175 185 194 196 202 213 224 226 218 226 233 241 248 252 258 268 268 256 265 249 260 269 280 283
139 140 139 144 153 158 159 164 175 175 180 180 180 182 190 198 203 206 213 223 224 224 223 228 231 242 246 245 241 249 253 248 250 255 255 263 277 275
167 158 151 153 158 162 164 168 170 176 179 187 194 198 203 207 208 214 226 238 238 236 235 242 243 241 243 241 243 250 240 242 242 238 252 264 272 276
171 168 168 168 167 164 166 171 175 184 191 193 198 205 210 217 223 232 238 242 240 241 244 249 250 248 243 242 239 232 239 236 235 245 268 272 302 292
176 172 173 179 183 181 182 185 187 198 202 206 214 223 232 234 238 243 240 239 243 244 248 253 256 254 258 267 257 241 232 238 244 259 255 283 289 289
183 184 192 194 194 196 201 196 200 208 211 215 226 229 235 234 241 242 242 246 250 252 254 258 268 274 261 255 248 245 239 235 237 250 262 282 289 287
194 194 200 211 215 221 221 219 217 217 220 225 223 227 233 237 241 249 245 245 248 255 264 267 262 258 253 256 255 254 245 243 239 247 257 276 280 281
211 206 203 206 214 217 225 229 232 230 229 231 230 232 237 238 243 248 253 253 253 253 252 251 250 249 250 253 254 250 243 237 230 244 276 270 271 274